Shelton, WA
on Wednesday, November 14, 2012

Wednesday
Previous Day Next Day
Daily Summary
 ActualAverage (KOLM)Record (KOLM)
Temperature
Mean Temperature °F 44°F  
Max Temperature 51°F 51°F 65°F (1995)
Min Temperature 37°F 37°F 3°F (1955)
Degree Days
Heating Degree Days 21 21  
Month to date heating degree days 278  
Since 1 July heating degree days 1072  
Cooling Degree Days 0 0  
Month to date cooling degree days 0  
Year to date cooling degree days 106  
Moisture
Dew Point 44°F   
Average Humidity 96    
Maximum Humidity 100    
Minimum Humidity 82    
Precipitation
Precipitation 0.00 in 0.30 in 3.64 in (2001)
Month to date precipitation 3.77  
Year to date precipitation 37.68  
Wind
Wind Speed 4 mph   
Max Wind Speed 10 mph   
Max Gust Speed mph   
Visibility 8 miles   
Events Fog   

Key: T is trace of precipitation, MM is missing value
Source: NWS Daily Summary
Time(PST)TemperatureDew PointHumidity Pressure Visibility Wind DirectionWind SpeedGust SpeedPrecipitationEvents Conditions
12:40 AM 44.6°F 42.8°F 93% 30.17 in 10.0 miles SW 6.9 mph - N/A   Scattered Clouds
12:53 AM 46.0°F 46.0°F 100% 30.18 in 10.0 miles SW 10.4 mph - N/A   Mostly Cloudy
1:06 AM 46.4°F 46.4°F 100% 30.17 in 10.0 miles SW 9.2 mph - N/A   Mostly Cloudy
1:30 AM 48.2°F 46.4°F 93% 30.17 in 10.0 miles WSW 4.6 mph - N/A   Overcast
1:53 AM 48.0°F 46.9°F 96% 30.18 in 10.0 miles WSW 5.8 mph - N/A   Overcast
2:53 AM 48.0°F 46.9°F 96% 30.19 in 10.0 miles WSW 5.8 mph - 0.00 in   Mostly Cloudy
3:07 AM 48.2°F 46.4°F 93% 30.18 in 10.0 miles WSW 8.1 mph - N/A   Mostly Cloudy
3:53 AM 46.9°F 46.0°F 97% 30.19 in 10.0 miles WSW 8.1 mph - N/A   Mostly Cloudy
4:04 AM 46.4°F 46.4°F 100% 30.18 in 10.0 miles WSW 5.8 mph - N/A   Scattered Clouds
4:31 AM 46.4°F 46.4°F 100% 30.19 in 10.0 miles Calm Calm - N/A   Mostly Cloudy
4:53 AM 46.9°F 46.0°F 97% 30.20 in 10.0 miles Calm Calm - N/A   Overcast
5:05 AM 46.4°F 46.4°F 100% 30.20 in 10.0 miles WNW 3.5 mph - N/A   Overcast
5:38 AM 44.6°F 44.6°F 100% 30.21 in 10.0 miles NNW 5.8 mph - N/A   Overcast
5:53 AM 44.1°F 44.1°F 100% 30.23 in 10.0 miles NNW 6.9 mph - N/A   Overcast
6:23 AM 42.8°F 42.8°F 100% 30.22 in 10.0 miles NNW 4.6 mph - N/A   Overcast
6:36 AM 42.8°F 42.8°F 100% 30.22 in 10.0 miles NW 4.6 mph - N/A   Overcast
6:53 AM 42.1°F 42.1°F 100% 30.25 in 3.0 miles NNW 4.6 mph - N/A   Overcast
6:57 AM 42.8°F 42.8°F 100% 30.23 in 1.8 miles NNW 4.6 mph - N/A   Overcast
7:37 AM 42.8°F 42.8°F 100% 30.24 in 0.8 miles Calm Calm - N/A   Mist
7:53 AM 42.1°F 41.0°F 96% 30.27 in 0.8 miles Calm Calm - N/A   Mist
8:53 AM 41.0°F 41.0°F 100% 30.28 in 0.5 miles Calm Calm - N/A Fog Fog
9:15 AM 42.8°F 42.8°F 100% 30.27 in 1.5 miles Calm Calm - N/A   Overcast
9:20 AM 42.8°F 42.8°F 100% 30.27 in 3.0 miles Calm Calm - N/A   Overcast
9:53 AM 45.0°F 44.1°F 97% 30.29 in 10.0 miles Calm Calm - N/A   Mostly Cloudy
10:24 AM 46.4°F 44.6°F 93% 30.29 in 10.0 miles Calm Calm - N/A   Overcast
10:40 AM 46.4°F 44.6°F 93% 30.29 in 10.0 miles East 4.6 mph - N/A   Mostly Cloudy
10:53 AM 46.9°F 45.0°F 93% 30.30 in 10.0 miles East 4.6 mph - N/A   Overcast
11:13 AM 48.2°F 44.6°F 87% 30.29 in 10.0 miles Calm Calm - N/A   Overcast
11:51 AM 50.0°F 46.4°F 87% 30.29 in 10.0 miles Variable 3.5 mph - N/A   Mostly Cloudy
11:53 AM 48.9°F 46.0°F 90% 30.30 in 10.0 miles Calm Calm - N/A   Mostly Cloudy
12:03 PM 48.2°F 46.4°F 93% 30.29 in 10.0 miles East 3.5 mph - N/A   Mostly Cloudy
12:37 PM 50.0°F 44.6°F 82% 30.28 in 10.0 miles NE 4.6 mph - N/A   Overcast
12:53 PM 50.0°F 46.0°F 86% 30.30 in 10.0 miles NE 4.6 mph - N/A   Overcast
1:53 PM 50.0°F 46.0°F 86% 30.29 in 10.0 miles NE 3.5 mph - N/A   Overcast
2:17 PM 51.8°F 46.4°F 82% 30.28 in 10.0 miles Variable 3.5 mph - N/A   Scattered Clouds
2:53 PM 48.9°F 45.0°F 86% 30.30 in 10.0 miles NE 3.5 mph - N/A   Scattered Clouds
3:28 PM 51.8°F 46.4°F 82% 30.28 in 10.0 miles Variable 3.5 mph - N/A   Mostly Cloudy
3:38 PM 50.0°F 44.6°F 82% 30.28 in 10.0 miles NE 6.9 mph - N/A   Mostly Cloudy
3:48 PM 48.2°F 44.6°F 87% 30.29 in 10.0 miles NNE 3.5 mph - N/A   Scattered Clouds
3:53 PM 48.0°F 45.0°F 89% 30.30 in 10.0 miles NE 3.5 mph - N/A   Partly Cloudy
4:53 PM 45.0°F 44.1°F 97% 30.30 in 10.0 miles Calm Calm - N/A   Clear
5:53 PM 42.1°F 42.1°F 100% 30.30 in 10.0 miles Calm Calm - N/A   Mostly Cloudy
6:26 PM 37.4°F 37.4°F 100% 30.29 in 2.5 miles Calm Calm - N/A   Scattered Clouds
6:31 PM 39.2°F 39.2°F 100% 30.29 in 1.2 miles Calm Calm - N/A   Mostly Cloudy
6:50 PM 39.2°F 39.2°F 100% 30.29 in 1.2 miles Calm Calm - N/A   Overcast
6:53 PM 37.9°F 37.9°F 100% 30.30 in 1.2 miles Calm Calm - N/A   Overcast
7:16 PM 37.4°F 37.4°F 100% 30.29 in 2.0 miles Calm Calm - N/A   Overcast
7:26 PM 39.2°F 39.2°F 100% 30.29 in 4.0 miles Calm Calm - N/A   Overcast
7:53 PM 42.1°F 42.1°F 100% 30.30 in 10.0 miles North 3.5 mph - N/A   Overcast
8:53 PM 44.1°F 44.1°F 100% 30.30 in 10.0 miles North 4.6 mph - N/A   Overcast
9:53 PM 44.1°F 44.1°F 100% 30.29 in 10.0 miles Calm Calm - N/A   Overcast
10:53 PM 42.1°F 42.1°F 100% 30.27 in 10.0 miles NE 3.5 mph - N/A   Scattered Clouds
11:02 PM 41.0°F 41.0°F 100% 30.26 in 3.0 miles Calm Calm - N/A   Mostly Cloudy
11:06 PM 42.8°F 41.0°F 93% 30.26 in 2.0 miles Calm Calm - N/A   Mostly Cloudy
11:13 PM 41.0°F 41.0°F 100% 30.26 in 1.8 miles North 4.6 mph - N/A   Mostly Cloudy
11:19 PM 41.0°F 41.0°F 100% 30.26 in 3.0 miles North 4.6 mph - N/A   Mostly Cloudy
11:53 PM 41.0°F 41.0°F 100% 30.27 in 1.8 miles North 4.6 mph - N/A   Overcast
Moon Phase
Nov. 14 Nov. 20 Nov. 28 Dec. 06 Dec. 13
Sunrise:07:16 AM (PST) Moon Rise:08:15 AM (PST)11/14
Sunset:04:37 PM (PST) Moon Set:05:27 PM (PST)11/14

Copyright © 2014 The Weather Underground, Inc.